Regional Weather Roundup
Issued by NWS

Home | Current Version | Previous Version | Graphics & Text | Print | Product List | Glossary On
Versions: 1 2 3 4 5 6 7 8 9 10 11 12 13 14 15 16 17 18 19 20 21 22 23 24 25 26 27 28 29 30 31 32 33 34 35 36 37 38 39 40 41 42 43 44 45 46 47 48 49 50
100
ASUS43 KLMK 011902
RWRKY
KENTUCKY REGIONAL WEATHER ROUNDUP
NATIONAL WEATHER SERVICE LOUISVILLE KY
300 PM EDT SUN MAY 01 2016

NOTE "FAIR" INDICATES FEW OR NO CLOUDS BELOW 12,000 FEET
WITH NO SIGNIFICANT WEATHER AND/OR OBSTRUCTIONS TO VISIBILITY.

KYZ001>023-026-027-061>063-070>075-012000-
WESTERN AND SOUTH CENTRAL KENTUCKY

CITY           SKY/WX    TMP DP  RH WIND       PRES   REMARKS
PADUCAH        PTSUNNY   79  65  62 W12       29.91F
HENDERSON      PTSUNNY   79  66  65 SW14      29.90F
OWENSBORO      PTSUNNY   81  67  62 SW13      29.91F
HOPKINSVILLE   PTSUNNY   80  65  61 S9        29.91F
BOWLING GREEN  MOSUNNY   81  65  58 SW12      29.93F
GLASGOW        NOT AVBL
$$

KYZ024-025-028>034-038-045-046-053-012000-
NORTH CENTRAL KENTUCKY

CITY           SKY/WX    TMP DP  RH WIND       PRES   REMARKS
LOUISVILLE/SDF CLOUDY    81  60  48 W5        29.87F
LOUISVILLE/LOU MOSUNNY   80  61  52 SW5       29.88F
FORT KNOX      MOSUNNY   77  65  64 S12       29.88F
$$

KYZ035>037-039>044-047>052-055>060-089>105-012000-
NORTHEAST KENTUCKY

CITY           SKY/WX    TMP DP  RH WIND       PRES   REMARKS
LEXINGTON      PTSUNNY   77  63  61 SW12      29.93F
COVINGTON      MOSUNNY   77  61  57 SW8       29.93S
FRANKFORT      MOSUNNY   80  62  54 CALM      29.90F
$$

KYZ054-064>069-076>088-106>120-012000-
SOUTHEAST KENTUCKY

CITY           SKY/WX    TMP DP  RH WIND       PRES   REMARKS
JACKSON        PTSUNNY   76  64  66 VRB3      29.96F
LONDON         PTSUNNY   79  60  52 S12       29.96S
SOMERSET       NOT AVBL
MIDDLESBORO    MOSUNNY   80  63  56 S8        29.98F
MONTICELLO     CLEAR     80  66  62 W17G25    29.97F
$$





USA.gov is the U.S. government's official web portal to all federal, state and local government web resources and services.